Location: ??
(34.9170°N, 135.5016°E)
Time: 00:45:49
(UTC+00:00)

RS-15 - Pass Details

Date: 23 April 2021
Orbit: 1888 x 2157 km, 64.8° (Epoch: 12 May)

Event Time Altitude Azimuth Distance (km) Brightness Sun altitude
Rises 10:52:19 0° 250° (WSW) 5,289 11.0 -15.2°
Reaches altitude 10° 10:56:11 10° 260° (W) 4,318 10.6 -15.9°
Maximum altitude 11:05:33 30° 319° (NW) 3,060 9.7 -17.6°
Drops below altitude 10° 11:15:23 10° 18° (NNE) 4,502 10.1 -19.3°
Sets 11:19:35 0° 29° (NNE) 5,546 10.5 -20.0°
